Friday Harbor, WA

3:50 AM PST on November 25, 2017 (GMT -0800)
Friday Harbor

Weather History for KFHR - December, 2012

Change the Weather History Date:

Saturday, December 22, 2012

  Actual Average Record
Temperature  
Mean Temperature 42 °F -  
Max Temperature 46 °F 43 °F 54 °F (2005)
Min Temperature 39 °F 34 °F 15 °F (1998)
Degree Days  
Heating Degree Days 22    
Moisture  
Dew Point 37 °F    
Average Humidity 77    
Maximum Humidity 86    
Minimum Humidity 71    
Precipitation  
Precipitation 0.00 in - - ()
Sea Level Pressure  
Sea Level Pressure 29.56 in    
Wind  
Wind Speed 11 mph (ESE)    
Max Wind Speed 26 mph    
Max Gust Speed 38 mph    
Visibility 10 miles    
Events Rain    
Averages and records for this station are not official NWS values.
T = Trace of Precipitation, MM = Missing Value Source: NWS Daily Summary

Daily Weather History Graph

Daily Weather History Graph

Search for Another Location

Airport or City:

Trip Planner

Search our weather history database for the weather conditions in past years. The results will help you decide how hot, cold, wet, or windy it might be!

Date:

Astronomy

Dec. 22, 2012 Rise Set
Actual Time 8:02 AM PST 4:19 PM PST
Civil Twilight 7:25 AM PST 4:56 PM PST
Nautical Twilight 6:45 AM PST 5:37 PM PST
Astronomical Twilight 6:06 AM PST 6:15 PM PST
Moon 12:53 PM PST (12/22) 2:37 AM PST (12/22)
Length of Visible Light 9h 31m
Length of Day
8h 17m
Waxing Gibbous, 74% of the Moon is Illuminated
Dec 22
Waxing Gibbous
Dec 28
Full
Jan 4
Last Quarter
Jan 11
New
Jan 18
First Quarter

Hourly Weather History & Observations

Time (PST) Temp. Windchill Dew Point Humidity Pressure Visibility Wind Dir Wind Speed Gust Speed Precip Events Conditions
12:53 AM 39.9 °F 35.8 °F 36.0 °F 86% 29.67 in 10.0 mi NNE 5.8 mph - N/A   Mostly Cloudy
1:53 AM 39.9 °F 35.8 °F 35.1 °F 83% 29.66 in 10.0 mi ENE 5.8 mph - N/A   Mostly Cloudy
2:53 AM 42.1 °F 36.6 °F 35.1 °F 76% 29.63 in 10.0 mi ENE 9.2 mph - N/A   Overcast
3:53 AM 41.0 °F 37.1 °F 35.1 °F 79% 29.61 in 10.0 mi NNE 5.8 mph - N/A   Mostly Cloudy
4:53 AM 39.9 °F - 35.1 °F 83% 29.56 in 10.0 mi Calm Calm - N/A   Mostly Cloudy
5:53 AM 42.1 °F - 35.1 °F 76% 29.54 in 10.0 mi Calm Calm - N/A   Overcast
6:53 AM 42.1 °F 39.2 °F 35.1 °F 76% 29.52 in 10.0 mi ESE 4.6 mph - N/A   Overcast
7:53 AM 43.0 °F 41.3 °F 34.0 °F 71% 29.51 in 10.0 mi East 3.5 mph - N/A   Overcast
8:53 AM 43.0 °F 37.7 °F 34.0 °F 71% 29.49 in 10.0 mi ENE 9.2 mph - N/A   Mostly Cloudy
9:53 AM 44.1 °F 38.1 °F 36.0 °F 73% 29.50 in 10.0 mi East 11.5 mph - 0.00 in Rain Light Rain
10:53 AM 45.0 °F 37.9 °F 37.9 °F 76% 29.49 in 10.0 mi East 16.1 mph 26.5 mph 0.00 in   Overcast
11:53 AM 45.0 °F 38.2 °F 37.9 °F 76% 29.48 in 10.0 mi ESE 15.0 mph 23.0 mph N/A   Mostly Cloudy
12:06 PM 44.6 °F 38.1 °F 39.2 °F 81% 29.48 in 10.0 mi ESE 13.8 mph 23.0 mph N/A   Mostly Cloudy
12:53 PM 46.9 °F - 39.0 °F 74% 29.48 in 10.0 mi ESE 13.8 mph 23.0 mph N/A   Overcast
1:53 PM 46.0 °F 38.3 °F 37.9 °F 73% 29.47 in 10.0 mi SE 20.7 mph 33.4 mph N/A   Mostly Cloudy
2:53 PM 46.0 °F 38.0 °F 37.9 °F 73% 29.49 in 10.0 mi SE 21.9 mph 27.6 mph N/A   Overcast
3:38 PM 46.4 °F 38.1 °F 37.4 °F 71% 29.48 in 10.0 mi SE 24.2 mph 34.5 mph N/A   Mostly Cloudy
3:53 PM 45.0 °F 36.0 °F 37.9 °F 76% 29.48 in 10.0 mi SE 25.3 mph 33.4 mph N/A   Scattered Clouds
4:53 PM 45.0 °F 35.8 °F 37.9 °F 76% 29.50 in 10.0 mi SE 26.5 mph 38.0 mph N/A   Scattered Clouds
5:53 PM 44.1 °F 35.7 °F 37.0 °F 76% 29.53 in 10.0 mi SSE 20.7 mph 29.9 mph N/A   Overcast
6:53 PM 43.0 °F 34.8 °F 37.9 °F 82% 29.57 in 10.0 mi SSE 18.4 mph 29.9 mph N/A   Overcast
7:53 PM 43.0 °F 35.1 °F 37.0 °F 80% 29.60 in 10.0 mi SSE 17.3 mph 27.6 mph N/A   Mostly Cloudy
8:53 PM 43.0 °F 35.1 °F 37.0 °F 80% 29.62 in 10.0 mi SE 17.3 mph 27.6 mph N/A   Partly Cloudy
9:53 PM 43.0 °F 34.2 °F 37.0 °F 80% 29.65 in 10.0 mi SE 20.7 mph 31.1 mph N/A   Scattered Clouds
10:53 PM 43.0 °F 34.2 °F 37.0 °F 80% 29.66 in 10.0 mi SE 20.7 mph 28.8 mph N/A   Scattered Clouds
11:06 PM 42.8 °F 34.5 °F 37.4 °F 81% 29.66 in 10.0 mi SSE 18.4 mph 29.9 mph N/A   Mostly Cloudy
11:53 PM 43.0 °F 35.1 °F 37.0 °F 80% 29.67 in 10.0 mi SE 17.3 mph 29.9 mph N/A   Overcast